Wind_Speed
38 38 38 39 39 40 40 41 40 40 41 42 43 43 43 44 43 40 41 43 42 41 40 40 42 43 42 41 40 40 39 41 42 42 44 45 44 44 44 44 42 42 42 42 42 42 40 39 38 37 37 38 39 39 40 40 40 40 41 40 40 40 40 39 40 40 40 41 42 43 43 44 45 45 46 47 48 48 47 47 48 49 49 48 47 46
40 40 40 41 42 42 42 42 41 41 42 43 43 44 44 44 43 42 43 43 44 44 42 42 44 45 44 41 40 39 39 42 44 45 45 44 44 45 45 45 44 44 44 44 43 43 42 41 40 40 40 40 40 41 41 41 41 42 42 43 43 43 42 42 42 42 42 42 42 43 44 44 45 46 46 47 48 49 49 49 49 50 51 50 50 49
42 41 42 43 43 43 43 43 43 43 44 44 44 44 44 45 45 44 44 44 45 46 44 44 45 46 44 42 41 40 40 44 46 46 44 43 44 46 46 46 46 46 46 45 44 44 43 43 43 42 42 42 42 42 42 42 42 43 43 44 44 45 45 44 44 44 44 44 43 43 44 45 46 46 47 48 49 50 51 51 51 51 52 52 52 52
44 43 44 45 44 44 44 45 46 46 46 46 45 46 45 46 47 45 45 47 47 47 46 46 47 47 46 44 43 43 43 45 46 45 45 45 46 47 48 48 48 48 47 47 46 45 45 45 44 44 44 44 43 43 44 44 44 45 45 45 46 46 46 47 47 46 46 46 46 45 45 45 46 47 48 49 49 50 51 52 52 52 53 54 53 54
46 45 46 45 46 47 47 48 48 48 49 48 48 48 48 49 49 47 48 49 48 48 48 47 49 49 48 46 46 45 46 46 46 46 46 46 47 48 49 49 49 49 49 48 47 47 47 47 47 46 46 46 45 45 45 46 46 46 47 47 47 47 48 48 48 48 48 47 47 47 47 47 47 48 49 50 51 51 52 53 54 54 54 55 56 56
47 46 46 47 48 49 49 50 50 50 51 51 51 52 51 51 51 50 50 51 50 50 50 50 50 50 49 48 48 48 48 48 47 46 47 48 49 49 50 50 50 50 50 50 49 49 49 49 49 49 49 49 48 47 47 47 48 48 49 49 49 49 49 49 50 50 49 49 49 49 49 49 49 49 50 51 52 52 53 53 54 55 56 56 57 58
49 48 48 48 50 51 51 51 51 53 54 53 53 54 53 53 53 53 52 52 52 51 52 52 51 51 51 50 50 51 51 50 50 49 49 50 50 50 50 51 52 52 52 51 51 51 50 51 51 51 51 51 50 50 50 50 50 50 50 51 51 51 51 51 51 51 51 51 51 50 51 51 51 51 51 52 53 53 54 55 55 56 57 58 58 60
51 50 50 51 52 52 51 52 53 55 56 55 55 56 55 55 55 55 55 55 54 54 54 54 53 53 54 53 52 53 53 53 53 53 52 52 52 51 51 52 53 53 53 53 52 52 52 53 53 53 53 52 51 51 51 52 52 53 53 53 53 53 54 54 54 54 53 53 52 52 52 53 53 53 53 53 54 54 55 56 57 57 58 59 59 60
53 53 53 53 54 53 53 54 55 56 57 57 57 58 57 57 58 58 58 57 57 58 57 55 54 56 57 55 54 55 55 55 55 55 55 54 54 54 53 53 54 54 54 54 53 53 54 54 54 54 53 53 52 52 52 52 53 54 54 55 55 55 56 56 56 56 56 56 55 54 54 55 55 55 55 56 55 56 56 57 58 59 59 60 60 61
55 55 55 56 56 55 56 57 58 58 58 58 59 59 59 59 59 60 60 60 60 60 60 57 57 58 58 58 57 56 57 58 57 57 56 56 56 56 56 56 55 55 55 55 55 55 55 55 55 54 54 53 53 53 53 53 53 54 54 55 56 57 57 58 59 59 60 60 59 58 58 57 57 58 58 58 58 57 58 58 59 59 60 61 62 63
56 57 57 57 57 57 58 59 60 61 61 61 60 60 60 60 61 61 62 62 62 62 62 59 59 60 60 61 61 59 60 60 59 59 58 58 58 58 58 58 57 57 57 57 56 56 56 56 56 55 54 54 53 53 53 53 53 53 53 54 55 56 57 58 60 61 62 63 63 62 62 61 61 61 60 60 60 60 60 60 60 60 61 62 63 64
57 58 58 59 59 59 60 60 61 62 62 62 62 62 62 62 62 63 64 64 65 65 64 62 62 62 63 64 63 62 63 63 62 61 60 60 60 60 60 59 59 59 59 59 59 58 57 57 56 56 56 56 55 55 54 53 53 53 53 54 54 55 56 58 59 60 62 63 64 64 64 64 64 64 63 63 62 62 62 62 61 62 62 63 64 65
58 59 60 60 60 60 61 61 62 63 63 62 62 63 63 63 64 64 66 67 68 67 65 65 65 64 65 67 65 65 65 65 64 63 63 62 62 62 62 61 62 62 61 61 61 60 59 59 58 58 58 57 57 57 56 55 54 54 53 53 54 54 56 57 59 60 61 62 63 63 63 64 64 65 65 65 65 64 64 64 64 63 64 64 64 65
60 61 62 62 62 63 63 63 64 64 64 63 63 63 63 65 64 65 68 69 68 68 66 66 66 65 66 68 67 66 66 66 66 65 65 64 64 64 64 63 63 63 63 63 63 62 62 61 61 60 60 59 58 58 58 57 56 55 55 55 55 56 57 58 59 60 61 61 61 61 62 62 62 63 64 65 65 66 66 66 66 66 65 65 65 66
63 64 65 64 65 66 66 66 66 65 65 65 65 65 64 65 66 68 70 69 69 68 66 65 66 65 67 68 67 67 67 67 67 67 67 66 66 66 66 65 65 64 64 64 64 64 64 64 63 63 62 61 60 60 59 59 58 58 57 57 57 58 59 60 61 62 62 62 61 61 61 61 62 62 62 63 64 65 66 67 68 68 68 67 67 67
66 67 67 68 68 68 69 69 68 67 68 67 67 67 66 67 71 72 70 70 70 70 66 64 65 66 68 68 67 68 68 68 68 68 68 68 68 68 68 67 67 66 66 66 66 66 66 65 65 64 64 63 62 62 61 61 60 60 60 60 60 60 61 62 63 63 63 63 63 63 63 62 63 63 62 63 63 64 65 66 67 69 69 70 70 69
70 70 70 71 73 73 72 72 72 71 71 70 70 70 69 70 75 74 72 71 72 71 68 65 65 67 68 66 66 69 69 69 68 68 69 69 69 69 69 69 69 68 68 68 68 68 68 67 67 66 66 65 65 64 63 63 62 62 62 62 63 63 63 63 64 64 65 64 64 64 64 64 64 64 64 64 64 65 65 66 67 68 69 71 72 72
72 73 74 75 76 77 76 76 76 76 75 74 74 74 74 75 76 76 75 75 73 73 71 67 66 68 69 67 66 69 71 69 68 69 69 69 69 69 69 69 70 70 70 70 70 70 70 69 69 68 68 67 67 66 65 64 64 63 64 64 65 65 65 64 65 65 66 66 65 65 64 65 65 65 65 65 65 66 66 67 68 69 69 70 72 73
75 75 77 78 78 79 79 79 79 80 80 80 79 78 78 78 78 78 79 79 77 76 74 71 69 69 69 68 69 71 72 71 70 70 70 70 69 69 69 69 70 70 70 71 71 71 71 71 70 70 70 69 68 68 67 66 65 65 65 66 66 66 66 66 66 67 67 67 66 66 66 66 66 66 66 66 66 67 67 68 69 70 71 71 72 73
77 78 78 78 79 80 81 82 82 84 85 85 84 82 81 81 81 82 84 83 81 79 78 76 73 71 69 70 73 74 73 73 73 73 72 72 70 70 70 70 70 71 71 72 72 72 72 72 71 71 71 70 69 69 68 67 66 66 66 67 67 67 68 68 68 68 69 68 68 67 67 67 67 67 67 67 67 68 68 69 69 70 71 72 73 74
80 80 79 79 79 79 81 83 84 85 87 87 87 86 85 85 85 86 87 86 85 84 83 82 78 73 72 73 76 77 76 77 77 76 75 75 73 72 72 72 72 72 72 73 73 72 72 72 72 72 72 70 70 69 68 67 67 67 67 67 67 68 68 68 69 69 70 69 69 69 69 69 69 69 69 69 69 69 70 70 70 71 71 72 73 74
80 81 80 79 80 80 82 84 85 85 87 88 89 89 89 89 89 90 89 87 88 88 88 88 82 75 74 76 76 78 80 81 81 79 78 78 77 76 74 74 74 74 74 75 75 74 74 73 73 73 73 72 71 70 69 68 68 68 68 68 68 68 69 69 69 70 70 70 70 71 71 71 71 71 71 71 71 71 71 71 71 71 72 72 74 75
79 81 80 79 79 80 81 84 85 85 87 90 91 91 91 92 92 93 92 89 89 92 92 91 86 78 76 78 78 80 83 84 83 82 83 83 82 80 77 76 77 77 77 77 77 77 77 76 76 76 76 75 74 72 71 71 71 71 70 70 70 70 70 70 70 71 71 71 71 72 72 73 73 73 72 72 72 72 72 72 72 72 72 73 74 75
77 79 79 78 77 77 78 81 83 85 87 90 91 92 93 94 94 95 95 92 92 93 93 93 90 83 81 82 81 83 85 85 85 86 87 88 87 84 81 80 80 80 80 81 80 80 80 79 79 79 79 78 77 75 75 74 74 74 73 73 72 72 72 72 72 73 72 72 72 73 73 74 74 73 73 73 73 74 74 74 74 74 74 75 76 76
76 78 78 78 76 75 75 78 81 83 86 88 89 90 91 94 95 95 95 95 96 95 94 95 93 87 85 86 85 85 87 87 88 89 90 92 92 89 85 83 83 83 83 84 84 84 83 82 82 82 82 81 79 79 78 78 77 76 76 76 75 75 75 75 75 75 75 74 74 75 75 75 75 74 74 75 75 76 76 76 76 76 77 77 78 79
77 77 78 79 78 76 74 76 79 82 84 85 86 87 89 92 95 95 95 96 96 95 94 95 94 90 88 88 87 87 88 87 89 91 92 94 95 93 90 87 87 87 87 88 88 88 87 85 85 85 84 83 82 81 81 80 80 79 79 79 78 78 78 78 78 78 77 77 77 78 78 77 76 76 76 76 77 78 78 79 79 79 80 80 81 81
78 77 78 80 80 78 76 75 77 81 84 85 86 86 88 90 93 94 95 94 93 93 92 92 93 91 87 87 88 89 89 89 89 91 93 94 94 95 93 90 90 90 90 91 91 91 90 89 87 87 86 85 85 84 84 83 83 83 82 82 82 81 81 81 81 80 80 80 80 80 80 79 79 79 78 79 79 80 81 81 81 81 82 83 83 84
79 77 78 81 81 80 77 76 77 80 83 85 86 86 87 89 91 94 94 92 91 93 91 88 89 90 86 84 87 88 88 88 88 90 93 94 93 93 94 93 92 92 92 92 92 92 92 91 90 89 88 87 87 87 86 86 86 85 85 85 85 84 84 84 83 83 83 83 83 82 82 82 82 81 81 81 82 83 83 83 83 84 84 85 86 86
77 76 77 80 80 79 78 77 77 80 83 85 85 84 84 86 89 91 92 91 91 93 90 84 85 88 85 82 83 85 86 86 86 88 91 92 92 92 93 94 93 92 92 93 92 91 91 92 91 91 90 89 88 88 87 87 86 86 86 86 86 86 86 86 86 86 86 85 85 85 85 84 84 84 84 85 85 85 85 85 86 86 87 87 88 88
75 74 75 78 78 76 76 77 78 81 82 83 82 81 80 81 84 87 90 90 90 91 89 83 82 85 84 80 79 82 85 86 87 87 86 89 92 92 92 93 93 91 91 92 91 90 90 91 91 91 91 90 89 89 88 87 87 87 87 87 87 88 88 88 88 88 88 88 88 88 87 87 87 87 87 88 88 88 88 88 89 89 89 90 90 90
74 73 74 77 77 74 74 78 81 82 83 82 77 75 76 79 82 84 84 83 83 84 83 81 81 81 78 76 78 81 84 87 88 86 84 87 91 90 88 89 89 88 89 90 89 88 88 89 90 90 90 89 89 88 87 87 86 86 86 87 87 88 88 89 90 90 90 90 90 90 89 89 89 89 89 89 90 91 91 91 92 92 92 92 92 92
73 74 74 77 78 73 74 80 83 85 85 79 72 72 78 82 82 80 78 77 77 78 78 77 77 72 67 71 78 80 82 85 87 86 85 87 89 87 84 84 84 84 85 85 85 85 86 87 88 88 88 87 86 85 84 84 84 84 84 84 84 85 86 87 88 89 89 89 89 89 89 89 88 88 88 90 91 92 92 92 93 93 93 93 92 92
74 76 76 79 80 75 75 81 86 86 82 73 71 76 81 81 80 77 75 74 73 74 74 72 70 65 63 70 77 77 78 82 85 84 84 85 86 85 84 83 82 82 82 81 81 82 82 83 84 84 83 82 80 80 80 80 79 79 79 79 79 80 81 82 83 84 85 86 86 86 86 85 85 85 85 87 88 89 90 91 91 91 91 90 90 90
74 76 77 80 82 79 77 82 86 84 77 72 75 80 80 78 78 76 73 70 69 70 70 67 65 63 64 69 73 74 77 81 81 80 80 81 80 81 84 84 82 80 79 78 78 79 80 80 81 79 77 75 74 74 74 74 74 73 73 73 73 74 76 76 77 79 79 80 80 80 80 79 79 79 80 81 83 84 85 85 85 86 85 85 84 84
73 76 78 80 82 81 80 83 85 80 74 73 76 78 79 78 76 73 69 67 67 68 67 64 61 60 63 68 69 70 74 78 78 76 76 76 76 79 83 83 80 77 76 76 77 78 79 79 79 77 74 71 71 70 69 69 68 68 67 67 68 69 70 71 72 73 74 74 74 73 72 71 71 72 73 74 75 76 77 77 77 78 78 77 77 77
74 76 78 79 81 82 82 81 82 77 71 70 71 74 78 77 73 70 66 64 65 67 66 62 58 59 64 66 65 67 72 75 74 73 73 72 72 77 81 81 78 76 74 74 75 76 77 77 77 75 72 70 69 67 65 64 64 63 62 62 64 65 66 67 68 70 70 68 67 66 65 64 65 66 67 68 68 69 69 69 69 69 69 69 69 69
75 78 79 79 79 82 82 80 79 75 67 65 67 71 74 74 71 69 64 60 63 67 64 59 57 60 63 63 63 67 70 71 70 69 68 68 69 73 78 78 75 72 72 73 73 73 73 74 74 72 71 69 67 64 62 61 60 59 59 60 61 62 63 64 66 66 65 64 62 61 61 60 61 62 62 62 62 62 61 61 61 62 62 62 61 61
77 79 81 80 77 78 79 77 74 70 64 61 64 68 71 70 68 67 61 57 61 65 61 56 56 59 61 62 63 66 67 67 65 63 64 66 67 71 74 74 71 69 68 69 69 69 69 70 70 70 69 67 65 61 59 59 57 56 56 58 59 60 61 62 64 63 61 60 59 58 58 58 58 59 58 57 57 56 56 55 56 56 55 54 53 54
78 80 81 80 77 76 76 73 68 64 60 59 61 64 66 65 65 64 59 55 59 62 58 54 55 57 59 61 62 63 63 62 61 60 62 65 67 70 70 69 68 66 65 64 64 65 65 66 67 67 66 64 61 58 57 56 54 53 55 56 58 59 60 61 61 60 58 57 57 55 55 55 55 55 54 53 53 52 52 52 51 50 48 47 47 48
76 79 79 79 76 76 74 69 64 60 57 56 58 60 61 61 62 62 56 52 56 59 55 54 56 57 58 59 59 60 60 59 59 60 61 63 67 68 67 66 66 63 60 59 60 61 62 64 64 64 63 61 57 55 55 53 50 51 53 55 57 58 59 60 59 57 56 55 54 53 52 51 50 50 49 49 49 49 48 47 46 44 43 42 43 45
74 75 75 75 73 71 70 66 61 58 54 52 54 56 57 58 58 57 54 52 55 56 54 55 56 55 56 57 58 58 58 57 58 58 59 63 67 66 64 63 62 59 56 55 56 58 61 62 62 61 60 57 53 52 51 48 47 49 52 54 56 57 58 57 56 55 53 52 51 49 48 46 44 44 44 45 46 46 44 42 41 40 39 40 41 41
70 69 69 71 69 65 63 62 57 53 51 51 51 51 52 55 55 53 52 52 53 52 52 53 53 53 54 55 57 58 57 57 58 58 60 64 65 63 61 60 58 56 53 52 55 58 60 61 60 58 56 53 49 48 47 46 46 48 51 53 55 55 55 54 53 51 50 49 47 45 42 41 40 39 41 42 42 41 39 37 37 37 36 37 37 37
65 64 63 65 64 60 58 57 53 49 48 48 47 48 49 51 51 51 51 51 49 49 50 51 51 52 53 54 57 58 56 56 58 59 61 63 63 62 60 57 55 54 51 52 55 58 59 58 57 55 52 49 45 44 44 44 45 47 49 52 52 52 51 50 49 48 47 45 43 40 38 37 36 37 38 38 37 35 34 33 33 33 33 33 33 33
60 60 59 58 58 57 54 51 49 47 45 44 44 46 48 48 47 47 49 49 47 46 48 49 49 50 51 53 55 56 55 56 58 59 60 61 60 59 56 54 52 50 49 51 55 57 57 56 53 51 49 45 41 42 43 43 44 46 48 50 50 49 48 46 45 45 43 41 38 36 35 34 34 34 35 34 32 31 31 31 30 29 29 30 31 33
56 57 55 53 54 53 49 47 46 45 42 41 43 44 45 44 43 44 47 47 45 44 45 47 48 48 48 50 52 54 55 55 56 57 58 58 57 55 54 51 49 48 48 50 53 55 55 53 50 48 45 41 38 40 41 42 43 45 47 48 47 46 45 44 43 42 39 37 35 34 33 32 32 31 31 30 30 29 28 28 26 26 28 30 32 33
54 54 52 50 50 48 44 44 45 42 40 40 41 41 42 42 41 43 46 46 44 43 43 45 46 46 46 47 50 52 53 52 52 55 57 56 55 53 52 50 48 48 48 49 52 55 54 50 47 44 41 38 37 39 40 42 43 45 46 46 45 43 42 41 40 38 35 34 33 32 31 30 29 29 28 28 27 26 26 25 24 25 29 31 31 31
53 52 49 46 44 43 41 43 42 39 38 38 38 39 40 41 41 43 45 44 43 41 41 43 44 44 44 45 47 50 50 49 51 54 55 54 53 52 50 49 48 47 47 49 52 55 52 47 44 41 38 37 37 38 40 42 43 44 45 44 42 40 39 38 36 34 32 32 31 30 29 27 26 26 26 26 25 24 24 22 22 25 29 29 29 29
52 49 46 42 39 40 42 42 38 35 36 37 36 37 40 40 40 41 42 42 41 39 39 41 42 42 43 44 45 47 47 48 50 52 52 52 52 51 48 47 46 46 46 50 53 52 48 44 41 38 36 36 37 38 40 41 42 43 44 42 39 38 37 35 33 31 30 30 29 28 26 25 24 24 24 24 23 22 21 21 22 25 27 28 28 30
48 44 42 39 37 39 42 39 35 34 36 36 35 37 39 39 39 39 39 40 39 38 38 39 40 40 41 43 44 45 45 47 49 50 50 52 51 48 45 45 44 44 46 50 52 49 45 42 39 37 36 36 37 38 39 40 41 42 42 39 37 35 34 32 30 29 29 28 27 26 24 23 23 23 23 23 22 21 20 20 22 24 26 27 29 31
43 39 38 37 37 40 39 35 33 35 35 34 34 36 37 37 37 37 38 39 38 37 37 38 39 40 41 43 44 44 45 47 49 49 51 51 48 44 42 41 41 43 46 49 49 47 43 41 38 36 35 36 36 37 38 39 40 41 39 37 35 33 31 30 28 28 27 26 25 24 22 21 22 22 22 22 21 20 19 20 22 24 25 26 29 30
38 34 34 35 38 41 37 32 33 35 34 33 34 36 37 37 36 36 37 38 38 37 37 38 39 41 42 44 44 44 45 47 48 49 50 48 43 40 40 39 40 43 46 47 46 44 42 39 36 34 34 35 36 37 38 38 38 38 37 34 32 31 29 28 27 26 26 25 24 23 22 21 21 22 22 22 21 20 19 19 21 23 24 25 27 28
Wind_Direction
244 243 242 241 241 241 242 242 242 242 243 244 245 245 245 246 247 247 247 249 250 250 249 250 251 252 251 250 252 254 255 257 257 257 257 257 258 260 261 261 260 260 260 259 259 259 258 257 255 253 252 251 250 249 248 248 248 249 249 249 247 246 244 242 242 241 239 236 233 232 233 233 233 234 234 233 232 231 231 229 229 230 228 225 221 218
246 245 244 243 243 242 242 242 242 242 243 245 247 247 247 248 249 248 249 250 252 252 251 251 251 252 252 251 251 253 255 256 257 257 257 258 260 260 261 261 260 260 259 259 258 258 257 256 255 254 252 251 250 250 249 248 248 248 248 248 248 248 247 245 243 243 242 241 238 235 233 232 233 233 233 233 233 231 231 230 229 229 230 228 226 223
249 247 246 246 246 246 245 244 244 243 244 246 247 247 247 248 249 249 250 251 252 253 252 252 253 253 254 253 252 251 253 255 256 256 257 258 259 260 259 259 259 259 259 258 258 257 257 256 255 254 253 252 251 250 250 249 249 248 248 248 248 248 248 247 246 245 244 242 241 238 235 234 233 233 233 233 233 232 231 231 229 228 229 229 228 226
250 249 248 248 248 249 248 248 247 246 246 247 247 248 248 249 250 250 251 252 253 253 253 253 254 255 255 255 254 253 252 253 256 256 257 258 258 259 259 259 259 259 259 258 258 258 257 256 256 255 254 253 252 251 251 250 249 249 249 248 248 247 247 247 247 246 245 244 243 241 238 236 234 234 234 233 233 233 232 231 230 228 228 228 228 228
251 250 250 250 250 250 250 250 250 249 249 249 249 249 249 249 251 251 252 253 254 254 254 254 254 255 256 256 255 255 253 253 254 255 256 257 257 258 259 259 259 259 260 259 259 258 257 257 256 255 254 253 252 252 252 251 250 250 249 249 248 248 247 247 247 247 246 245 245 243 241 239 236 235 235 234 234 233 232 232 231 230 229 227 227 228
251 251 251 251 251 250 250 251 252 252 252 251 251 251 250 250 251 252 253 254 255 255 255 255 255 256 256 256 255 256 255 255 255 255 255 255 256 257 258 259 260 260 260 260 260 259 258 258 257 256 255 254 253 252 252 252 251 251 250 250 249 249 248 248 247 247 246 245 245 245 244 243 240 237 236 236 235 234 233 232 232 231 230 229 227 227
253 252 252 251 251 251 251 251 252 252 252 252 252 252 252 252 252 253 253 254 255 255 255 255 256 256 256 256 256 256 256 256 257 256 256 255 255 256 257 258 259 259 260 260 260 260 260 259 258 257 256 255 254 253 252 252 251 251 250 250 250 250 250 249 248 248 247 246 245 245 245 245 244 241 239 238 237 236 235 233 233 232 232 230 229 227
254 253 253 252 252 252 252 252 252 252 252 252 252 252 253 253 253 254 254 255 255 255 255 255 256 257 257 257 257 257 257 257 258 258 257 257 257 257 257 257 258 259 259 260 260 260 260 259 259 258 258 256 255 254 253 252 251 251 250 250 250 250 250 250 250 249 249 247 246 245 245 245 245 244 243 241 239 238 237 235 234 233 232 232 231 229
255 254 254 254 253 253 253 253 253 253 253 253 253 253 253 254 254 254 255 256 256 256 256 256 256 257 257 257 257 258 258 258 258 258 258 258 258 258 257 257 258 258 259 259 259 259 259 259 259 259 258 258 256 255 254 253 252 250 250 249 249 249 249 249 249 250 250 249 248 247 246 245 245 245 245 244 242 240 239 238 236 234 233 233 232 231
255 255 255 255 255 254 254 254 254 253 253 253 253 253 253 254 254 255 255 256 256 256 256 256 256 256 257 258 258 258 259 259 258 258 259 259 259 259 258 258 257 258 258 258 258 258 258 259 259 259 259 259 258 256 255 254 252 251 250 250 249 249 249 249 249 249 249 249 249 249 248 247 246 246 245 245 244 243 241 240 238 237 235 234 233 232
255 256 256 255 255 255 254 254 254 254 254 253 254 254 254 254 254 255 255 255 255 256 256 256 255 256 257 258 258 258 258 258 258 258 259 259 259 259 259 258 258 257 257 257 257 257 258 259 259 260 259 259 258 257 256 254 253 252 251 250 250 250 250 250 249 249 249 249 249 249 249 249 248 248 247 246 245 245 244 242 241 239 238 236 234 233
256 256 256 255 255 255 255 255 255 255 255 254 254 254 254 254 254 255 255 255 255 255 255 256 255 256 257 258 258 258 258 258 258 258 258 258 259 259 259 259 258 258 258 258 257 257 258 258 259 260 260 259 259 258 257 256 254 253 252 252 251 251 251 251 250 250 250 250 250 249 249 249 249 249 248 247 246 246 245 244 243 242 240 239 237 235
256 256 256 256 255 255 255 255 255 255 255 255 255 255 255 255 254 255 255 255 255 254 255 256 256 255 256 257 257 257 257 257 257 257 257 257 258 259 259 259 258 258 258 258 258 257 257 258 258 259 259 259 259 258 258 256 255 254 253 252 252 252 252 251 251 251 250 251 250 250 250 249 249 249 248 248 247 247 246 246 245 244 242 241 240 238
257 257 257 257 256 256 255 255 255 255 255 255 255 255 255 255 255 255 255 254 255 255 254 255 256 255 256 257 257 257 257 258 258 257 256 256 257 257 258 259 259 258 258 258 258 257 257 257 258 258 258 259 259 259 258 257 256 255 254 253 252 251 251 251 251 251 251 251 251 251 250 250 249 249 248 248 247 247 247 246 246 245 244 243 241 240
258 258 258 258 257 257 257 256 256 256 256 256 256 255 255 256 256 254 254 255 255 255 254 254 255 256 256 256 257 257 257 257 258 258 257 257 257 257 257 258 258 259 259 259 259 258 258 257 257 257 258 259 259 259 259 258 257 255 254 253 252 251 251 251 251 251 251 251 251 251 251 250 250 249 249 248 247 246 246 246 246 245 245 245 243 241
259 259 259 259 259 259 258 258 257 256 256 256 256 256 256 256 256 254 254 255 255 255 254 254 255 255 255 256 257 257 257 256 257 257 257 257 257 257 257 258 258 258 259 259 259 259 258 258 257 257 258 258 259 259 259 258 257 255 254 253 252 251 250 250 250 250 250 250 250 251 251 251 250 250 249 249 248 248 246 245 245 245 245 245 244 243
259 260 260 260 260 259 259 259 259 258 257 257 257 257 256 255 256 256 255 255 255 255 255 254 254 255 255 256 256 257 257 256 256 256 256 256 257 257 257 258 257 258 258 258 258 258 258 258 258 258 258 259 259 259 258 258 257 256 254 253 252 251 250 250 250 250 250 250 250 250 251 251 250 250 250 249 249 249 248 247 246 245 244 243 244 244
259 260 260 260 261 261 260 260 260 260 259 258 257 257 256 255 256 257 257 256 256 256 256 254 253 254 256 256 256 256 257 256 256 256 256 256 256 257 257 258 258 257 257 257 258 258 258 258 258 258 258 258 258 258 258 258 257 256 255 254 253 252 252 251 251 251 251 251 250 250 251 251 251 251 250 250 249 249 249 248 247 246 245 243 242 242
259 258 259 259 260 261 262 262 262 261 260 259 257 257 257 257 257 258 258 257 256 256 256 255 253 253 255 257 256 256 257 258 257 256 256 256 256 256 256 257 257 258 258 258 258 258 258 258 258 258 258 258 258 257 257 257 256 256 255 255 254 254 253 253 253 252 252 252 251 251 252 252 251 251 251 250 250 249 249 248 248 248 247 245 243 242
259 258 258 258 259 260 261 262 262 262 262 261 261 259 258 258 259 259 259 258 257 257 256 255 253 252 254 256 257 256 257 258 258 257 256 256 256 256 256 257 257 257 258 258 258 258 258 258 259 259 258 258 258 258 257 257 256 256 256 255 255 255 254 254 254 254 253 253 253 253 253 252 252 252 252 251 251 251 250 249 248 248 247 247 245 244
260 259 258 258 259 260 261 261 261 262 263 263 263 262 261 260 259 259 259 259 260 259 258 256 253 252 253 254 256 257 258 258 258 258 258 258 257 256 256 257 257 257 258 259 259 259 259 259 259 259 259 259 259 259 258 258 258 257 257 256 256 255 255 254 254 254 254 254 254 254 254 253 253 252 252 252 252 251 251 250 249 248 247 247 246 245
262 261 260 259 259 259 260 261 261 262 263 263 263 262 262 261 260 259 259 259 260 260 259 258 256 253 253 253 255 257 258 258 258 259 258 258 258 257 256 257 257 258 258 259 259 260 260 260 260 260 260 260 260 260 260 259 259 258 258 257 256 256 255 255 254 254 254 254 254 254 254 254 253 253 252 252 252 251 250 249 248 247 247 246 246 245
263 263 262 260 260 259 260 261 262 262 262 263 263 263 263 262 262 261 260 259 259 259 259 260 259 256 255 254 254 254 256 258 259 260 260 259 258 257 257 257 257 258 258 259 259 259 260 260 260 261 261 261 261 261 260 260 260 259 259 258 258 257 257 256 256 255 254 254 254 254 254 254 254 253 253 253 252 251 250 249 248 247 247 246 246 245
264 263 263 262 261 260 260 261 262 262 262 263 263 264 264 264 263 262 262 261 259 259 259 260 259 258 257 256 255 255 255 256 257 258 259 260 260 259 258 258 258 258 259 259 259 259 259 260 260 260 261 261 261 261 261 261 261 260 260 260 260 259 259 258 258 257 257 256 256 255 255 255 254 254 254 254 253 252 251 250 249 248 248 248 247 247
264 264 264 263 262 260 260 261 261 261 262 262 263 264 264 265 264 263 263 262 261 260 260 260 259 258 257 256 255 255 256 256 257 257 258 259 259 259 259 259 259 259 259 260 260 260 260 260 260 261 261 262 262 262 262 262 262 262 262 261 261 261 260 260 259 259 259 259 258 257 257 256 256 256 255 255 255 254 253 252 251 250 250 249 249 248
264 265 265 265 264 262 261 262 262 263 262 262 263 263 263 264 264 264 263 263 262 262 262 262 261 259 258 257 256 255 255 255 256 257 257 258 259 260 259 259 259 259 259 260 260 260 260 260 261 261 262 262 262 263 263 263 263 263 263 263 263 263 262 262 262 261 261 261 260 260 259 258 258 257 257 257 256 255 254 253 253 252 251 251 250 250
265 265 265 266 265 264 263 262 263 264 264 264 263 263 263 264 264 265 264 264 264 264 263 262 263 262 260 259 258 257 255 255 254 256 257 257 258 260 260 259 259 259 259 259 260 260 261 261 261 262 262 263 263 263 263 264 264 264 265 264 264 264 264 264 264 264 263 263 262 262 261 260 260 259 259 258 257 256 255 254 254 253 252 252 252 251
265 265 265 266 266 265 265 263 262 263 263 263 263 263 264 265 265 266 266 266 266 265 263 262 263 263 261 260 259 259 258 257 255 255 256 256 257 258 260 259 259 259 259 259 260 260 261 262 262 263 263 263 263 263 263 264 264 265 265 265 265 265 265 265 265 264 264 264 263 263 263 262 261 261 260 259 258 257 256 255 254 254 253 253 252 252
267 266 266 266 267 267 267 266 264 263 263 262 262 262 263 264 265 266 267 267 266 265 264 262 262 262 261 259 259 260 260 259 257 255 255 256 255 256 258 258 258 259 259 260 260 261 261 262 263 263 263 263 263 263 263 264 264 265 265 265 265 266 265 265 265 264 264 264 263 263 263 262 262 261 261 260 259 258 257 256 256 254 254 253 253 252
269 269 268 269 269 269 270 270 268 266 265 264 264 264 264 265 265 266 265 265 265 265 265 264 263 262 262 261 260 260 260 259 257 256 256 257 256 254 255 257 258 258 259 260 260 261 262 262 263 263 263 263 263 263 263 263 264 264 264 265 265 265 265 265 265 265 264 264 263 263 263 262 262 261 261 261 260 260 259 258 257 256 255 254 254 253
272 272 271 271 271 271 272 272 271 269 268 267 268 270 270 269 267 266 265 265 265 266 266 265 262 261 263 264 262 259 258 257 257 256 256 257 257 256 255 256 257 258 259 260 260 261 261 262 262 262 263 262 262 263 263 263 263 263 264 264 264 265 265 265 265 265 264 264 263 263 263 262 262 262 261 261 261 260 260 259 258 258 257 256 255 255
275 274 274 274 273 273 272 272 271 271 270 272 274 275 273 270 269 268 268 268 267 266 265 263 261 261 261 261 259 257 256 256 256 256 256 256 258 258 258 258 259 259 260 260 260 261 261 261 262 262 262 262 262 263 263 263 263 264 264 264 264 264 264 264 264 264 264 264 263 263 263 262 262 261 261 260 260 260 259 259 259 258 258 257 256 256
276 276 276 275 275 274 273 272 271 271 273 276 277 274 272 271 271 270 269 268 267 266 265 263 262 260 257 255 255 254 254 254 254 254 254 255 258 260 260 260 259 260 260 260 261 262 262 262 263 263 263 263 263 264 264 264 264 264 264 265 265 265 265 264 264 264 264 263 263 263 262 262 262 261 260 260 259 259 258 258 258 258 257 257 256 256
276 276 276 275 276 276 274 273 272 274 276 278 275 273 272 272 271 270 269 268 268 267 266 264 262 260 255 252 252 252 252 252 253 253 253 254 256 258 259 259 259 259 260 262 262 263 264 264 264 265 265 265 266 266 266 266 266 266 266 267 267 266 266 265 265 264 264 263 263 263 263 262 262 261 261 260 259 259 258 258 258 257 257 256 256 255
275 275 275 275 275 276 275 274 274 276 277 276 274 274 274 272 270 270 269 268 268 266 264 261 259 257 254 251 250 250 251 252 252 252 252 253 253 255 257 259 260 260 261 262 262 263 263 264 265 266 266 266 266 267 267 267 268 268 268 268 268 267 267 266 266 265 265 265 265 265 264 264 263 263 262 261 260 260 259 258 258 258 257 256 255 255
276 275 275 275 275 276 275 275 276 277 277 276 275 274 273 272 271 269 267 265 265 263 260 256 254 253 252 250 249 249 249 250 251 251 251 251 251 253 256 258 259 259 260 260 261 261 262 263 264 265 265 266 266 267 268 268 269 269 269 269 268 267 267 267 267 266 266 267 267 267 267 266 265 264 263 262 261 261 260 259 259 258 257 256 255 254
278 277 276 276 276 276 277 277 277 278 278 278 276 273 272 271 270 268 265 264 263 261 258 254 252 250 250 249 248 247 248 249 249 250 251 251 250 252 254 256 257 258 259 259 259 260 261 262 263 264 264 265 266 267 268 269 270 270 269 268 267 267 266 266 267 267 268 269 269 269 268 268 267 266 265 264 263 262 261 260 259 258 257 256 255 253
280 280 279 278 278 278 278 278 278 279 280 278 274 272 271 270 268 266 264 263 262 260 257 254 252 249 248 247 246 246 247 248 248 248 249 250 249 250 252 255 256 257 257 258 259 260 261 261 262 262 263 264 265 267 268 269 269 269 268 267 267 266 266 266 267 268 269 269 269 269 269 268 267 266 266 266 265 264 263 261 260 258 257 256 255 253
282 282 282 282 282 281 280 279 279 279 278 276 272 270 269 268 267 264 261 260 260 259 256 253 250 248 246 245 245 245 246 247 247 246 247 248 249 250 252 254 255 255 255 257 258 258 259 259 260 260 261 263 265 267 268 268 268 268 267 266 266 266 266 267 268 269 270 270 270 269 268 267 266 266 266 266 265 264 262 261 260 259 258 256 255 253
283 282 283 283 283 282 281 281 281 280 277 274 270 268 266 264 263 262 261 259 258 257 254 251 248 246 245 244 244 244 244 245 245 245 245 247 248 249 251 252 253 254 255 255 255 256 256 257 257 258 260 262 264 265 266 266 266 265 265 265 265 265 266 267 269 270 270 270 270 269 267 266 265 265 264 263 263 262 261 261 261 260 258 256 253 251
283 283 283 282 281 281 281 282 281 279 277 273 268 266 264 263 261 260 259 256 254 254 252 250 248 246 245 244 244 243 243 243 243 244 245 246 248 249 250 251 253 254 254 253 253 253 254 254 256 257 260 262 263 263 263 262 262 261 262 263 263 264 266 268 269 270 270 270 269 268 266 265 264 263 262 260 260 260 260 260 259 258 256 253 251 248
284 283 283 281 280 280 280 279 279 278 275 271 268 265 263 261 260 258 256 254 252 252 251 249 247 245 244 243 243 243 241 240 241 241 242 245 248 249 250 251 252 253 252 252 251 251 252 254 255 257 259 260 260 260 259 258 258 258 259 261 262 264 266 268 270 270 270 270 268 266 264 263 262 261 259 258 258 259 258 256 255 253 251 249 247 246
284 282 281 280 280 280 278 278 278 276 273 269 267 264 261 259 258 257 255 252 250 249 248 247 245 244 242 241 242 242 241 240 240 240 241 243 246 248 249 249 250 250 250 249 249 250 252 253 255 257 257 257 256 256 255 255 255 257 258 260 262 264 267 269 270 270 269 267 266 265 263 261 260 259 258 258 257 256 255 252 249 248 246 245 244 242
284 282 280 279 279 279 278 278 277 274 271 268 265 262 259 257 256 255 253 251 248 246 246 245 244 242 241 240 241 242 241 240 240 241 242 243 245 247 248 248 247 247 246 246 248 250 252 253 254 255 256 255 253 253 253 254 255 256 258 260 263 266 268 270 270 269 267 265 265 264 261 260 259 259 258 257 255 252 250 247 244 242 242 241 240 240
283 280 279 279 278 278 279 278 276 272 270 266 262 260 258 257 254 252 251 249 247 244 243 243 242 241 240 240 240 240 240 240 241 243 244 245 246 247 248 248 247 245 243 245 248 250 251 252 252 253 253 252 250 250 252 254 255 256 259 262 264 267 269 269 268 266 265 264 263 262 261 260 258 257 256 254 251 248 245 242 239 237 238 238 237 237
281 278 278 277 277 279 279 276 273 271 268 264 261 259 257 255 251 249 247 246 244 241 240 241 241 239 238 237 238 239 240 240 240 242 243 245 246 246 246 246 246 244 243 245 247 249 250 250 250 250 250 248 247 248 251 253 254 257 260 263 265 267 268 267 265 264 264 263 262 261 260 258 256 254 252 250 248 245 241 239 236 233 233 234 234 234
278 277 277 277 278 279 277 272 271 270 268 264 260 257 255 252 249 247 246 246 244 240 237 238 239 238 237 236 236 238 240 240 239 241 243 244 245 245 245 245 244 243 243 244 246 248 250 249 248 248 246 245 245 247 249 252 254 257 261 263 265 266 266 264 264 264 263 262 261 260 257 255 253 251 248 247 244 242 239 236 231 228 229 230 231 233
276 278 279 279 278 276 272 270 271 270 266 262 258 254 252 249 247 246 245 245 243 239 236 236 236 235 235 235 235 236 237 238 239 241 243 244 244 243 243 242 242 242 242 243 246 248 248 248 247 245 243 242 243 246 248 251 254 257 261 264 265 265 264 263 263 264 263 261 259 257 254 251 249 246 244 243 241 239 236 230 224 224 227 230 233 237
277 279 281 280 276 271 269 270 271 267 263 260 256 253 251 248 246 244 242 242 240 237 234 233 233 233 233 234 234 235 235 237 239 241 242 243 243 242 242 241 240 240 241 243 245 246 245 244 244 242 240 241 243 245 248 251 254 257 261 263 263 263 262 263 264 263 262 259 256 254 251 247 244 241 240 238 237 234 228 222 222 226 230 234 239 242
280 282 282 280 275 269 268 268 266 262 260 258 254 251 250 247 244 241 239 239 238 234 231 230 230 230 230 231 233 233 234 236 238 240 242 243 242 242 242 240 239 238 239 241 243 244 242 241 240 239 239 240 242 244 247 250 253 257 260 262 261 261 261 262 263 262 259 256 252 249 245 240 237 235 234 233 231 226 220 220 226 231 235 239 242 243
283 284 280 275 270 267 265 263 260 258 256 254 251 249 247 244 241 238 237 236 235 232 229 226 226 227 228 230 231 232 233 235 237 239 242 243 242 241 241 240 238 237 237 239 241 242 240 239 238 237 238 239 241 243 246 249 253 257 259 259 259 259 260 261 261 258 255 251 246 243 237 232 229 228 227 226 224 218 216 223 233 236 237 240 242 240
Height
10616 10617 10618 10619 10619 10620 10620 10621 10622 10624 10624 10624 10624 10625 10626 10626 10627 10630 10631 10630 10630 10632 10634 10635 10634 10634 10635 10638 10640 10641 10643 10642 10642 10642 10642 10643 10644 10645 10646 10647 10650 10651 10651 10652 10653 10654 10657 10659 10661 10663 10664 10665 10666 10667 10668 10669 10670 10672 10673 10675 10677 10678 10680 10682 10683 10685 10686 10688 10690 10693 10694 10696 10698 10699 10701 10703 10706 10708 10710 10712 10713 10715 10717 10720 10721 10723
10611 10612 10613 10614 10614 10615 10616 10617 10618 10619 10619 10619 10619 10620 10621 10621 10623 10625 10625 10626 10626 10626 10629 10630 10629 10629 10630 10634 10636 10638 10638 10637 10636 10636 10637 10639 10640 10640 10641 10642 10644 10645 10646 10647 10648 10650 10652 10654 10656 10657 10659 10660 10661 10662 10663 10665 10666 10667 10668 10670 10671 10673 10675 10677 10678 10679 10681 10683 10685 10687 10689 10691 10693 10695 10696 10698 10700 10703 10704 10706 10708 10710 10712 10714 10716 10718
10605 10607 10608 10608 10609 10610 10611 10612 10612 10613 10613 10613 10614 10615 10616 10617 10617 10619 10620 10621 10620 10621 10624 10624 10623 10624 10626 10629 10631 10633 10633 10631 10629 10631 10633 10635 10635 10635 10635 10636 10638 10639 10640 10641 10643 10645 10647 10648 10650 10652 10653 10654 10656 10657 10658 10660 10661 10662 10663 10664 10666 10668 10669 10671 10672 10674 10675 10677 10680 10682 10684 10686 10688 10690 10691 10693 10695 10697 10699 10700 10702 10705 10707 10709 10711 10713
10599 10601 10602 10602 10604 10605 10606 10606 10606 10607 10608 10608 10609 10609 10611 10611 10611 10614 10615 10614 10615 10616 10618 10619 10618 10618 10621 10623 10625 10626 10627 10625 10625 10626 10628 10629 10629 10629 10629 10631 10632 10633 10634 10636 10638 10640 10641 10643 10644 10646 10647 10649 10650 10652 10653 10654 10655 10656 10658 10659 10660 10662 10663 10665 10666 10668 10670 10672 10674 10676 10678 10680 10682 10684 10685 10687 10689 10691 10693 10695 10697 10699 10701 10703 10705 10707
10593 10595 10596 10597 10599 10599 10599 10600 10600 10601 10602 10602 10604 10604 10605 10606 10605 10608 10609 10608 10610 10610 10612 10614 10613 10613 10615 10617 10619 10619 10620 10620 10620 10622 10623 10623 10623 10623 10623 10625 10626 10627 10629 10630 10632 10634 10635 10637 10638 10640 10641 10643 10644 10646 10647 10649 10650 10651 10652 10653 10655 10656 10657 10659 10660 10662 10664 10666 10668 10670 10672 10674 10676 10678 10680 10681 10683 10685 10688 10690 10691 10693 10695 10697 10699 10701
10586 10589 10590 10591 10592 10592 10593 10593 10594 10595 10595 10596 10597 10597 10599 10600 10600 10602 10603 10602 10604 10605 10606 10607 10607 10608 10610 10611 10612 10613 10612 10614 10615 10616 10617 10617 10617 10617 10618 10619 10620 10621 10622 10624 10626 10627 10628 10630 10631 10633 10634 10636 10638 10640 10641 10643 10644 10645 10646 10647 10649 10650 10651 10653 10654 10656 10658 10660 10662 10664 10665 10667 10670 10672 10674 10675 10677 10679 10681 10684 10685 10687 10689 10691 10693 10695
10581 10583 10584 10584 10584 10584 10586 10587 10588 10587 10587 10589 10590 10590 10592 10593 10594 10595 10596 10596 10597 10599 10599 10599 10601 10602 10602 10604 10606 10605 10606 10607 10608 10610 10610 10610 10611 10612 10613 10613 10614 10615 10616 10618 10619 10620 10622 10623 10624 10626 10627 10629 10632 10633 10635 10636 10638 10639 10640 10641 10643 10644 10645 10647 10648 10649 10651 10653 10656 10657 10659 10660 10662 10665 10667 10669 10671 10673 10675 10677 10679 10681 10683 10685 10687 10689
10574 10576 10576 10577 10577 10578 10580 10581 10580 10579 10580 10582 10583 10584 10585 10586 10587 10588 10589 10590 10590 10591 10592 10593 10595 10595 10594 10597 10599 10598 10599 10601 10601 10602 10603 10604 10605 10606 10607 10607 10608 10609 10610 10611 10613 10614 10615 10615 10616 10618 10620 10622 10625 10626 10628 10629 10631 10632 10633 10635 10636 10637 10639 10640 10642 10643 10644 10646 10649 10651 10652 10654 10655 10657 10659 10661 10664 10666 10668 10670 10672 10675 10677 10679 10681 10683
10567 10568 10569 10569 10570 10572 10573 10572 10572 10572 10573 10575 10576 10577 10579 10579 10580 10581 10582 10582 10583 10583 10584 10587 10590 10588 10587 10589 10592 10592 10592 10593 10594 10595 10596 10597 10598 10599 10600 10601 10601 10602 10603 10604 10606 10607 10607 10608 10609 10611 10613 10615 10617 10619 10620 10622 10623 10625 10626 10628 10629 10631 10632 10633 10635 10636 10637 10639 10641 10643 10645 10647 10648 10649 10651 10654 10656 10658 10661 10663 10665 10667 10670 10673 10675 10677
10560 10560 10561 10562 10563 10565 10565 10564 10564 10565 10566 10567 10568 10569 10571 10572 10572 10573 10574 10574 10576 10575 10576 10581 10582 10580 10580 10581 10583 10585 10585 10585 10586 10588 10589 10590 10591 10592 10593 10594 10595 10596 10596 10597 10599 10600 10600 10601 10602 10604 10606 10608 10609 10611 10612 10614 10616 10617 10619 10621 10622 10624 10625 10626 10628 10629 10630 10631 10633 10635 10637 10638 10640 10642 10644 10646 10648 10650 10653 10655 10657 10660 10662 10665 10668 10671
10553 10553 10554 10554 10555 10556 10556 10556 10556 10556 10558 10559 10560 10562 10563 10565 10565 10566 10566 10566 10567 10567 10568 10573 10574 10573 10574 10573 10574 10578 10577 10577 10579 10580 10582 10582 10582 10584 10585 10586 10588 10589 10589 10590 10591 10593 10593 10594 10596 10597 10599 10600 10601 10603 10604 10606 10608 10610 10611 10613 10615 10616 10618 10619 10620 10621 10621 10622 10624 10626 10628 10630 10632 10634 10636 10638 10640 10642 10644 10647 10649 10652 10654 10657 10660 10663
10546 10545 10545 10545 10546 10547 10548 10548 10548 10548 10549 10551 10553 10554 10555 10556 10557 10558 10557 10557 10558 10558 10561 10564 10565 10567 10566 10564 10566 10569 10568 10569 10571 10573 10574 10575 10574 10575 10577 10578 10580 10580 10581 10582 10584 10586 10587 10588 10589 10590 10591 10593 10594 10595 10597 10599 10600 10602 10604 10606 10608 10609 10610 10611 10611 10612 10613 10614 10616 10618 10620 10622 10623 10625 10628 10630 10632 10634 10636 10638 10641 10643 10646 10649 10652 10655
10539 10538 10537 10537 10538 10539 10539 10540 10540 10539 10540 10543 10545 10546 10547 10547 10548 10549 10547 10547 10548 10549 10554 10556 10555 10559 10558 10555 10558 10560 10560 10561 10563 10564 10566 10567 10567 10567 10568 10570 10571 10572 10573 10574 10576 10578 10579 10580 10582 10582 10583 10585 10586 10587 10590 10591 10593 10595 10597 10599 10600 10601 10602 10602 10602 10603 10604 10605 10607 10609 10611 10613 10615 10617 10619 10621 10624 10626 10628 10630 10632 10635 10638 10641 10644 10647
10531 10529 10528 10529 10529 10529 10531 10531 10531 10532 10533 10535 10536 10538 10539 10538 10540 10540 10536 10536 10539 10541 10546 10547 10546 10551 10550 10546 10549 10551 10552 10553 10553 10555 10557 10558 10559 10559 10560 10561 10562 10563 10564 10566 10568 10570 10571 10572 10573 10574 10575 10577 10578 10580 10582 10583 10585 10587 10589 10590 10592 10593 10593 10593 10593 10594 10595 10597 10599 10601 10603 10605 10606 10608 10610 10612 10615 10617 10619 10622 10624 10626 10629 10632 10635 10638
10522 10519 10519 10521 10521 10520 10521 10522 10523 10526 10526 10527 10528 10529 10531 10530 10529 10529 10526 10528 10530 10531 10536 10539 10539 10542 10540 10538 10541 10542 10543 10544 10544 10546 10548 10549 10550 10551 10552 10553 10554 10555 10556 10557 10559 10560 10562 10563 10565 10566 10567 10569 10570 10572 10574 10575 10577 10579 10580 10581 10583 10584 10584 10584 10585 10585 10587 10589 10591 10592 10594 10596 10598 10600 10602 10603 10606 10608 10611 10613 10615 10617 10620 10622 10625 10628
10513 10511 10511 10512 10512 10511 10511 10512 10515 10517 10517 10518 10519 10519 10524 10522 10515 10515 10518 10520 10520 10521 10528 10532 10532 10532 10530 10531 10533 10532 10533 10535 10536 10537 10538 10539 10541 10542 10544 10545 10546 10547 10548 10549 10549 10551 10552 10554 10556 10557 10559 10560 10562 10563 10565 10566 10568 10570 10571 10572 10573 10574 10575 10576 10576 10577 10579 10581 10583 10584 10586 10588 10589 10591 10593 10595 10597 10599 10602 10604 10606 10608 10611 10613 10615 10618
10505 10503 10503 10502 10500 10500 10502 10502 10504 10506 10508 10510 10510 10509 10513 10511 10503 10505 10511 10512 10510 10512 10519 10524 10525 10522 10521 10525 10526 10522 10522 10525 10527 10528 10529 10530 10532 10533 10535 10536 10537 10538 10539 10540 10540 10541 10543 10545 10546 10548 10550 10551 10553 10554 10556 10557 10559 10561 10562 10563 10564 10565 10566 10568 10569 10569 10571 10572 10574 10576 10578 10579 10581 10582 10585 10586 10588 10590 10592 10594 10596 10599 10601 10603 10606 10608
10497 10495 10494 10492 10488 10489 10492 10492 10492 10494 10496 10498 10499 10498 10499 10498 10497 10498 10499 10501 10503 10504 10508 10515 10517 10515 10514 10518 10518 10514 10512 10516 10520 10519 10520 10522 10524 10525 10526 10527 10528 10529 10530 10531 10531 10532 10534 10535 10537 10539 10540 10542 10543 10545 10546 10548 10550 10551 10552 10553 10554 10556 10557 10559 10561 10561 10562 10564 10566 10568 10569 10571 10572 10574 10575 10577 10579 10581 10582 10584 10586 10588 10591 10593 10596 10598
10487 10485 10483 10482 10480 10480 10480 10481 10482 10481 10481 10483 10486 10488 10488 10488 10490 10490 10487 10490 10494 10494 10498 10504 10508 10508 10509 10510 10509 10506 10504 10507 10510 10511 10511 10513 10516 10517 10518 10518 10519 10520 10520 10521 10522 10523 10524 10526 10527 10529 10530 10532 10533 10535 10537 10539 10541 10542 10543 10544 10545 10547 10549 10550 10552 10552 10553 10555 10557 10559 10560 10562 10563 10565 10566 10568 10569 10571 10573 10574 10576 10578 10580 10583 10585 10588
10472 10473 10474 10474 10473 10473 10471 10470 10470 10467 10466 10469 10472 10476 10480 10480 10480 10478 10474 10478 10482 10483 10487 10491 10495 10500 10503 10502 10498 10496 10498 10498 10498 10500 10502 10503 10507 10508 10509 10510 10511 10511 10511 10511 10512 10514 10515 10516 10518 10519 10520 10522 10524 10526 10528 10530 10532 10533 10534 10535 10536 10537 10539 10541 10542 10543 10544 10546 10548 10550 10551 10552 10554 10555 10557 10558 10560 10561 10563 10564 10566 10568 10569 10572 10574 10577
10458 10459 10464 10465 10465 10465 10462 10458 10459 10457 10455 10456 10458 10461 10465 10467 10468 10465 10463 10467 10469 10470 10473 10476 10483 10493 10496 10492 10489 10488 10489 10488 10487 10491 10492 10493 10497 10499 10500 10502 10502 10502 10502 10502 10503 10505 10506 10508 10509 10509 10510 10513 10515 10516 10519 10521 10522 10524 10525 10526 10527 10528 10529 10531 10532 10533 10534 10536 10538 10539 10541 10542 10544 10545 10547 10548 10550 10551 10552 10554 10556 10558 10559 10561 10563 10565
10445 10445 10451 10454 10455 10456 10453 10448 10448 10449 10446 10444 10444 10446 10449 10450 10452 10451 10453 10459 10459 10456 10458 10460 10468 10484 10487 10483 10485 10483 10477 10475 10478 10482 10483 10483 10485 10488 10490 10493 10493 10493 10494 10494 10494 10495 10496 10498 10499 10499 10501 10503 10505 10507 10510 10511 10512 10514 10515 10516 10517 10518 10519 10522 10522 10523 10524 10527 10528 10529 10530 10531 10533 10535 10536 10538 10540 10541 10542 10544 10545 10547 10549 10550 10551 10553
10433 10432 10436 10442 10445 10446 10444 10439 10438 10439 10436 10432 10431 10433 10434 10435 10436 10436 10439 10448 10448 10442 10445 10447 10453 10470 10476 10473 10477 10475 10468 10467 10469 10471 10471 10471 10472 10476 10480 10482 10483 10483 10484 10484 10485 10485 10486 10488 10489 10489 10490 10492 10495 10498 10500 10501 10502 10503 10505 10506 10507 10508 10509 10511 10511 10512 10514 10516 10517 10518 10519 10520 10521 10523 10525 10527 10529 10530 10531 10532 10534 10536 10538 10539 10540 10542
10421 10419 10422 10428 10433 10435 10435 10430 10428 10428 10424 10420 10420 10422 10421 10421 10422 10422 10424 10432 10433 10431 10435 10434 10438 10455 10462 10459 10463 10463 10459 10460 10460 10459 10459 10457 10458 10463 10468 10471 10472 10473 10473 10473 10474 10475 10476 10478 10479 10479 10480 10481 10485 10488 10489 10490 10491 10492 10494 10495 10496 10497 10498 10500 10500 10501 10503 10504 10506 10507 10508 10508 10510 10513 10514 10516 10517 10518 10519 10520 10522 10524 10526 10527 10528 10530
10410 10409 10410 10413 10418 10424 10424 10420 10417 10416 10412 10410 10411 10411 10409 10407 10407 10409 10412 10414 10414 10418 10424 10420 10424 10441 10446 10444 10449 10451 10449 10451 10449 10448 10448 10445 10444 10449 10455 10459 10460 10462 10462 10461 10461 10463 10464 10466 10467 10468 10469 10471 10474 10476 10477 10479 10481 10482 10483 10484 10485 10486 10487 10488 10488 10489 10491 10493 10494 10495 10495 10497 10499 10501 10503 10503 10504 10505 10506 10508 10509 10511 10513 10514 10516 10518
10399 10400 10399 10399 10403 10410 10413 10411 10407 10404 10401 10401 10401 10400 10399 10394 10393 10396 10397 10396 10397 10405 10412 10408 10410 10424 10430 10430 10436 10437 10437 10440 10438 10435 10435 10434 10433 10435 10441 10447 10448 10449 10450 10448 10449 10450 10451 10454 10456 10456 10458 10460 10463 10465 10466 10467 10469 10470 10471 10472 10473 10474 10475 10475 10476 10477 10479 10481 10481 10482 10483 10486 10488 10489 10490 10491 10491 10492 10493 10495 10497 10499 10500 10502 10504 10506
10388 10391 10389 10386 10388 10394 10400 10403 10399 10393 10390 10389 10388 10389 10388 10385 10382 10381 10380 10384 10388 10391 10395 10397 10397 10404 10414 10418 10418 10419 10422 10426 10427 10425 10423 10423 10424 10424 10427 10433 10435 10435 10437 10436 10436 10438 10439 10441 10443 10445 10447 10449 10451 10453 10455 10456 10457 10458 10460 10460 10461 10461 10462 10463 10464 10465 10467 10468 10468 10469 10471 10473 10475 10476 10477 10478 10478 10479 10480 10482 10484 10486 10487 10489 10491 10493
10377 10381 10379 10374 10375 10380 10385 10390 10389 10382 10378 10376 10377 10378 10378 10375 10371 10367 10366 10373 10377 10371 10375 10387 10387 10386 10397 10405 10402 10403 10407 10411 10415 10415 10410 10410 10415 10414 10414 10416 10419 10421 10423 10423 10425 10426 10427 10429 10431 10433 10435 10437 10439 10441 10443 10444 10446 10447 10448 10448 10448 10449 10450 10451 10452 10453 10454 10454 10455 10457 10459 10460 10461 10462 10463 10464 10465 10465 10467 10469 10471 10473 10475 10477 10479 10480
10365 10369 10368 10362 10364 10368 10372 10375 10374 10370 10365 10363 10365 10368 10369 10366 10361 10357 10355 10358 10359 10352 10357 10373 10376 10371 10379 10390 10392 10392 10392 10394 10398 10398 10395 10397 10401 10402 10400 10400 10404 10408 10410 10410 10413 10416 10417 10417 10418 10420 10422 10425 10427 10429 10431 10433 10434 10435 10436 10436 10436 10436 10437 10438 10438 10439 10440 10441 10442 10444 10445 10446 10447 10448 10449 10450 10451 10452 10454 10456 10458 10459 10461 10463 10465 10467
10354 10358 10356 10351 10353 10359 10360 10359 10357 10353 10350 10350 10353 10357 10359 10358 10353 10346 10342 10342 10342 10339 10343 10357 10361 10358 10364 10376 10382 10381 10377 10377 10379 10381 10384 10384 10383 10386 10388 10387 10390 10395 10396 10397 10400 10404 10405 10405 10405 10407 10409 10411 10414 10416 10419 10421 10422 10423 10423 10424 10424 10424 10425 10425 10425 10425 10426 10427 10429 10430 10432 10433 10434 10435 10436 10437 10437 10438 10440 10442 10442 10444 10447 10449 10452 10454
10344 10346 10346 10341 10342 10349 10351 10344 10338 10336 10334 10335 10343 10350 10348 10342 10335 10330 10329 10331 10332 10330 10334 10341 10344 10348 10359 10366 10366 10364 10361 10360 10363 10368 10373 10371 10367 10371 10376 10377 10379 10383 10384 10385 10389 10392 10392 10392 10392 10393 10396 10398 10401 10404 10407 10408 10409 10410 10411 10411 10412 10412 10412 10412 10411 10412 10412 10413 10415 10416 10418 10419 10421 10423 10424 10423 10423 10423 10424 10426 10427 10429 10431 10434 10436 10439
10334 10334 10335 10329 10328 10339 10342 10329 10322 10320 10318 10325 10338 10340 10331 10321 10317 10318 10320 10321 10321 10319 10321 10324 10327 10341 10354 10351 10342 10345 10347 10347 10350 10355 10359 10359 10357 10360 10365 10367 10369 10372 10372 10374 10377 10378 10378 10379 10379 10381 10383 10386 10389 10392 10394 10395 10396 10398 10398 10399 10399 10400 10399 10398 10398 10398 10398 10399 10401 10402 10404 10406 10408 10410 10410 10409 10408 10408 10409 10410 10411 10413 10415 10418 10420 10423
10323 10320 10322 10316 10312 10324 10328 10316 10307 10304 10308 10321 10328 10319 10309 10306 10305 10307 10308 10308 10309 10307 10308 10312 10318 10330 10338 10331 10324 10330 10335 10333 10335 10341 10346 10349 10350 10352 10354 10355 10357 10359 10361 10363 10365 10365 10366 10366 10367 10369 10372 10376 10379 10381 10382 10383 10384 10385 10386 10386 10387 10387 10385 10385 10385 10385 10385 10386 10387 10389 10391 10393 10395 10395 10395 10393 10392 10393 10393 10394 10395 10397 10400 10402 10404 10406
10312 10308 10308 10303 10299 10307 10311 10301 10292 10292 10302 10313 10310 10298 10294 10294 10292 10291 10295 10298 10299 10297 10297 10302 10308 10315 10318 10315 10314 10318 10319 10318 10323 10330 10334 10339 10343 10343 10340 10341 10345 10348 10350 10352 10353 10353 10354 10354 10355 10358 10362 10366 10368 10369 10370 10371 10372 10373 10374 10375 10374 10373 10372 10372 10372 10371 10372 10373 10374 10377 10379 10381 10381 10381 10380 10378 10378 10378 10379 10379 10381 10382 10384 10387 10389 10391
10303 10297 10295 10292 10288 10290 10293 10286 10279 10283 10294 10298 10293 10286 10280 10277 10278 10281 10285 10289 10288 10284 10285 10289 10296 10300 10300 10300 10304 10308 10307 10307 10312 10319 10323 10329 10334 10332 10328 10329 10335 10338 10340 10342 10342 10342 10342 10343 10345 10348 10352 10356 10357 10358 10360 10361 10361 10361 10363 10363 10362 10361 10360 10360 10359 10359 10359 10361 10363 10366 10367 10368 10367 10367 10366 10365 10364 10364 10365 10366 10367 10368 10370 10373 10375 10376
10290 10286 10282 10281 10278 10274 10275 10273 10268 10272 10282 10284 10280 10275 10266 10262 10266 10269 10272 10277 10274 10269 10271 10278 10285 10287 10284 10287 10295 10298 10296 10296 10301 10307 10312 10318 10323 10322 10318 10320 10324 10327 10330 10331 10331 10331 10332 10334 10336 10339 10343 10345 10347 10349 10350 10350 10350 10352 10353 10353 10351 10350 10349 10348 10348 10347 10348 10351 10353 10354 10355 10355 10354 10353 10353 10352 10351 10352 10353 10354 10355 10356 10358 10360 10361 10363
10276 10272 10269 10268 10268 10263 10260 10261 10259 10260 10269 10272 10268 10261 10253 10251 10254 10254 10259 10266 10262 10255 10260 10270 10274 10274 10274 10278 10284 10284 10284 10287 10292 10299 10303 10308 10312 10310 10307 10309 10314 10318 10320 10320 10321 10323 10324 10325 10327 10329 10333 10335 10338 10340 10341 10341 10342 10343 10343 10342 10340 10340 10339 10338 10337 10337 10339 10342 10343 10343 10344 10343 10342 10341 10341 10341 10341 10341 10342 10343 10344 10345 10346 10348 10349 10351
10262 10258 10254 10253 10257 10254 10248 10248 10250 10251 10257 10259 10254 10247 10241 10240 10241 10242 10248 10255 10249 10244 10252 10261 10264 10264 10265 10268 10271 10272 10274 10279 10286 10293 10295 10297 10299 10297 10297 10300 10305 10308 10310 10310 10312 10314 10314 10316 10318 10320 10323 10326 10329 10332 10332 10332 10334 10335 10334 10332 10331 10330 10330 10329 10328 10329 10331 10332 10332 10333 10333 10332 10332 10331 10331 10331 10331 10331 10332 10332 10333 10334 10335 10338 10340 10340
10250 10244 10241 10238 10241 10240 10235 10236 10239 10242 10245 10245 10239 10234 10231 10230 10230 10230 10237 10243 10239 10237 10244 10250 10251 10252 10254 10257 10261 10264 10267 10273 10279 10283 10284 10285 10287 10287 10289 10292 10294 10297 10300 10302 10303 10304 10305 10306 10308 10311 10315 10319 10322 10324 10324 10324 10326 10327 10325 10323 10322 10321 10321 10320 10320 10321 10322 10322 10322 10323 10324 10323 10322 10322 10322 10322 10322 10321 10321 10322 10323 10325 10327 10329 10331 10330
10240 10234 10231 10228 10227 10224 10221 10224 10228 10230 10232 10231 10226 10222 10221 10220 10219 10220 10226 10232 10230 10229 10235 10239 10238 10240 10243 10247 10252 10256 10260 10265 10269 10272 10274 10276 10275 10276 10279 10282 10284 10288 10292 10294 10294 10295 10296 10297 10300 10304 10308 10312 10315 10316 10315 10316 10319 10318 10316 10315 10313 10313 10312 10312 10312 10312 10313 10313 10314 10314 10314 10314 10314 10314 10314 10313 10312 10312 10313 10314 10315 10317 10319 10321 10321 10321
10230 10225 10221 10217 10215 10213 10211 10212 10216 10217 10218 10218 10214 10211 10210 10210 10210 10212 10217 10220 10220 10222 10226 10227 10228 10232 10236 10239 10244 10247 10252 10256 10259 10262 10265 10264 10263 10267 10271 10274 10276 10280 10284 10285 10286 10286 10287 10290 10293 10297 10301 10305 10308 10308 10308 10310 10311 10309 10307 10306 10305 10305 10305 10305 10304 10304 10305 10305 10305 10306 10306 10306 10307 10306 10305 10305 10304 10304 10306 10308 10309 10310 10312 10312 10313 10314
10219 10216 10211 10203 10202 10205 10203 10201 10204 10207 10206 10205 10203 10202 10201 10200 10201 10204 10207 10208 10211 10215 10218 10218 10221 10225 10228 10232 10235 10238 10243 10247 10249 10252 10254 10253 10255 10260 10263 10266 10270 10273 10275 10277 10278 10278 10279 10282 10287 10291 10295 10298 10301 10300 10301 10302 10302 10301 10299 10298 10297 10297 10297 10297 10297 10296 10297 10297 10297 10298 10299 10299 10299 10298 10297 10297 10298 10298 10300 10302 10303 10304 10305 10306 10307 10308
10207 10203 10200 10193 10191 10194 10194 10192 10195 10197 10195 10194 10194 10193 10192 10191 10193 10195 10196 10199 10203 10207 10209 10211 10214 10217 10221 10225 10226 10229 10235 10239 10240 10242 10245 10246 10249 10252 10256 10260 10263 10265 10268 10269 10270 10271 10273 10277 10281 10285 10288 10291 10293 10293 10294 10295 10294 10293 10291 10290 10290 10290 10290 10290 10290 10289 10289 10290 10290 10291 10292 10292 10292 10291 10291 10291 10292 10294 10295 10296 10298 10299 10300 10301 10302 10304
10195 10190 10189 10187 10183 10182 10184 10185 10186 10186 10186 10186 10186 10184 10183 10184 10186 10188 10188 10190 10195 10199 10201 10203 10206 10210 10214 10217 10219 10223 10228 10231 10233 10235 10237 10240 10243 10246 10250 10253 10256 10259 10261 10262 10263 10265 10267 10271 10276 10278 10281 10284 10286 10286 10286 10286 10286 10284 10283 10283 10283 10283 10283 10283 10283 10282 10283 10284 10284 10285 10285 10286 10286 10286 10286 10286 10288 10289 10290 10291 10293 10294 10295 10296 10298 10299
10184 10180 10180 10179 10175 10174 10177 10177 10176 10177 10178 10178 10178 10176 10176 10178 10180 10181 10181 10183 10187 10191 10193 10195 10198 10203 10207 10210 10213 10216 10220 10223 10226 10228 10230 10233 10237 10240 10243 10246 10249 10252 10255 10255 10257 10259 10261 10265 10269 10272 10274 10277 10279 10279 10278 10278 10278 10277 10276 10276 10276 10277 10277 10277 10276 10276 10277 10278 10278 10279 10279 10280 10280 10281 10281 10282 10283 10284 10285 10287 10289 10291 10291 10292 10293 10295
10173 10171 10171 10170 10167 10168 10171 10169 10166 10168 10170 10170 10170 10170 10169 10171 10173 10173 10173 10175 10179 10183 10186 10188 10192 10196 10200 10204 10207 10209 10212 10216 10220 10221 10223 10226 10229 10233 10237 10240 10242 10245 10247 10249 10251 10252 10255 10259 10263 10265 10267 10270 10272 10272 10271 10270 10270 10270 10269 10270 10271 10271 10271 10271 10270 10270 10271 10272 10273 10273 10274 10275 10276 10276 10277 10277 10278 10280 10281 10283 10286 10287 10287 10288 10290 10291
10162 10161 10163 10164 10163 10162 10162 10159 10159 10162 10163 10163 10164 10164 10163 10164 10165 10165 10166 10169 10173 10177 10180 10182 10186 10190 10193 10197 10200 10202 10205 10209 10212 10213 10215 10219 10222 10226 10229 10232 10235 10238 10240 10242 10244 10245 10249 10253 10256 10259 10261 10263 10265 10265 10264 10263 10264 10263 10263 10264 10265 10265 10265 10265 10265 10265 10266 10267 10268 10269 10270 10271 10272 10272 10273 10273 10274 10276 10278 10280 10282 10283 10283 10285 10286 10288
10153 10155 10156 10157 10158 10155 10151 10151 10154 10156 10156 10156 10157 10157 10156 10157 10159 10160 10162 10164 10168 10172 10175 10177 10180 10184 10187 10190 10193 10195 10199 10202 10204 10206 10209 10212 10215 10218 10221 10225 10229 10231 10233 10235 10237 10240 10244 10247 10250 10253 10255 10257 10257 10257 10257 10257 10257 10257 10257 10259 10260 10260 10259 10259 10260 10261 10261 10262 10263 10264 10266 10267 10268 10269 10269 10270 10271 10273 10275 10277 10278 10279 10280 10282 10283 10284
10148 10151 10150 10150 10150 10146 10143 10146 10149 10149 10148 10149 10150 10150 10150 10151 10153 10155 10157 10159 10162 10167 10170 10171 10174 10178 10180 10183 10185 10189 10192 10195 10197 10199 10202 10204 10206 10211 10215 10219 10222 10224 10227 10229 10231 10234 10237 10240 10243 10246 10249 10250 10250 10250 10250 10251 10251 10251 10252 10254 10254 10254 10254 10254 10255 10256 10256 10257 10259 10261 10263 10264 10265 10265 10266 10267 10268 10270 10272 10274 10275 10276 10277 10279 10279 10280
10143 10147 10145 10143 10142 10138 10138 10141 10143 10141 10141 10142 10143 10144 10144 10146 10148 10150 10152 10154 10157 10161 10164 10167 10170 10172 10174 10176 10179 10183 10186 10188 10190 10193 10194 10196 10200 10206 10209 10212 10215 10218 10219 10221 10225 10228 10230 10233 10236 10240 10242 10243 10243 10244 10245 10246 10246 10246 10247 10248 10249 10249 10249 10249 10250 10251 10252 10253 10255 10257 10259 10260 10261 10262 10263 10264 10266 10267 10269 10271 10272 10273 10274 10275 10275 10276
10139 10140 10138 10136 10133 10130 10132 10135 10135 10133 10134 10136 10137 10137 10138 10140 10142 10144 10146 10149 10152 10155 10159 10161 10164 10166 10168 10170 10173 10177 10180 10182 10184 10186 10187 10190 10195 10200 10203 10206 10208 10210 10212 10215 10219 10221 10223 10226 10230 10234 10235 10236 10237 10238 10239 10240 10240 10241 10242 10243 10243 10243 10244 10245 10246 10247 10248 10249 10251 10253 10255 10257 10257 10258 10260 10261 10263 10265 10267 10268 10269 10270 10271 10272 10272 10273